Hutchinson, MN

1:10 AM CST on December 12, 2017 (GMT -0600)
Hutchinson Municipal-Butler

Weather History for KHCD - December, 2014

Change the Weather History Date:

Wednesday, December 24, 2014

  Actual Average Record
Temperature  
Mean Temperature 32 °F -  
Max Temperature 34 °F 22 °F 44 °F (2011)
Min Temperature 30 °F 3 °F -28 °F (1983)
Degree Days  
Heating Degree Days 33    
Moisture  
Dew Point 32 °F    
Average Humidity 95    
Maximum Humidity 100    
Minimum Humidity 90    
Precipitation  
Precipitation 0.00 in - - ()
Sea Level Pressure  
Sea Level Pressure 29.73 in    
Wind  
Wind Speed 9 mph (West)    
Max Wind Speed 13 mph    
Max Gust Speed 17 mph    
Visibility 8 miles    
Events Snow    
Averages and records for this station are not official NWS values.
T = Trace of Precipitation, MM = Missing Value Source: NWS Daily Summary

Daily Weather History Graph

Daily Weather History Graph

Search for Another Location

Airport or City:

Trip Planner

Search our weather history database for the weather conditions in past years. The results will help you decide how hot, cold, wet, or windy it might be!

Date:

Astronomy

Dec. 24, 2014 Rise Set
Actual Time 7:53 AM CST 4:40 PM CST
Civil Twilight 7:19 AM CST 5:14 PM CST
Nautical Twilight 6:42 AM CST 5:51 PM CST
Astronomical Twilight 6:06 AM CST 6:27 PM CST
Moon 9:38 AM CST (12/24) 8:13 PM CST (12/24)
Length of Visible Light 9h 54m
Length of Day
8h 47m
Waxing Crescent, 10% of the Moon is Illuminated
Dec 24
Waxing Crescent
Dec 28
First Quarter
Jan 4
Full
Jan 13
Last Quarter
Jan 20
New

Hourly Weather History & Observations

Time (CST) Temp. Windchill Dew Point Humidity Pressure Visibility Wind Dir Wind Speed Gust Speed Precip Events Conditions
12:13 AM 34.9 °F 28.3 °F 33.1 °F 93% 29.88 in 10.0 mi NW 8.1 mph - N/A   Overcast
12:33 AM 34.9 °F 27.1 °F 33.3 °F 94% 29.88 in 10.0 mi NW 10.4 mph - N/A   Overcast
12:52 AM 34.9 °F 26.6 °F 33.3 °F 94% 29.87 in 10.0 mi NW 11.5 mph - N/A   Overcast
1:13 AM 34.9 °F 27.1 °F 33.1 °F 93% 29.87 in 10.0 mi NW 10.4 mph - N/A   Overcast
1:32 AM 34.7 °F 25.9 °F 33.1 °F 94% 29.87 in 10.0 mi NW 12.7 mph - N/A   Overcast
1:52 AM 34.7 °F 26.4 °F 33.1 °F 94% 29.85 in 10.0 mi NW 11.5 mph - N/A   Overcast
2:12 AM 34.3 °F 25.5 °F 33.1 °F 95% 29.85 in 10.0 mi NW 12.7 mph - N/A   Overcast
2:33 AM 34.3 °F 26.5 °F 33.3 °F 96% 29.85 in 10.0 mi NW 10.4 mph - N/A   Overcast
2:52 AM 34.2 °F 25.7 °F 33.1 °F 96% 29.85 in 10.0 mi NW 11.5 mph - N/A   Overcast
3:13 AM 34.3 °F 25.9 °F 33.1 °F 95% 29.84 in 10.0 mi NW 11.5 mph 17.3 mph N/A   Overcast
3:32 AM 34.3 °F 25.5 °F 32.9 °F 94% 29.84 in 10.0 mi NW 12.7 mph - N/A   Overcast
3:53 AM 34.2 °F 26.2 °F 32.9 °F 95% 29.84 in 10.0 mi NW 10.4 mph - N/A   Overcast
4:12 AM 34.2 °F 26.2 °F 32.9 °F 95% 29.85 in 10.0 mi NW 10.4 mph - N/A   Overcast
4:33 AM 34.0 °F 26.0 °F 32.5 °F 94% 29.84 in 7.0 mi NW 10.4 mph - N/A Snow Light Snow
4:52 AM 33.8 °F 26.4 °F 32.5 °F 95% 29.84 in 10.0 mi NW 9.2 mph - N/A   Overcast
5:12 AM 33.8 °F 25.3 °F 32.4 °F 94% 29.84 in 10.0 mi NW 11.5 mph 16.1 mph N/A   Overcast
5:33 AM 33.4 °F 25.4 °F 32.4 °F 96% 29.83 in 7.0 mi NW 10.4 mph - N/A   Overcast
5:53 AM 33.4 °F 26.6 °F 32.5 °F 96% 29.83 in 5.0 mi NNW 8.1 mph - N/A   Overcast
6:13 AM 33.3 °F 27.9 °F 32.4 °F 96% 29.82 in 10.0 mi NNW 5.8 mph - N/A   Overcast
6:32 AM 33.6 °F 27.5 °F 32.0 °F 94% 29.82 in 10.0 mi NNW 6.9 mph - N/A   Overcast
6:53 AM 33.4 °F 28.1 °F 32.2 °F 95% 29.82 in 10.0 mi NW 5.8 mph - N/A   Overcast
7:12 AM 33.4 °F 25.9 °F 32.2 °F 95% 29.82 in 10.0 mi NW 9.2 mph - N/A   Overcast
7:33 AM 33.4 °F 26.6 °F 32.0 °F 94% 29.82 in 10.0 mi NW 8.1 mph - N/A   Overcast
7:53 AM 33.8 °F 27.7 °F 31.3 °F 90% 29.81 in 10.0 mi NW 6.9 mph - N/A   Overcast
8:13 AM 33.4 °F 25.9 °F 31.1 °F 91% 29.81 in 10.0 mi NNW 9.2 mph - N/A   Overcast
8:32 AM 33.4 °F 26.6 °F 31.3 °F 92% 29.80 in 10.0 mi NW 8.1 mph - N/A   Overcast
8:52 AM 33.4 °F 28.1 °F 31.6 °F 93% 29.79 in 7.0 mi NW 5.8 mph - N/A   Overcast
9:13 AM 33.3 °F 27.9 °F 32.0 °F 95% 29.80 in 7.0 mi WNW 5.8 mph - N/A   Overcast
9:51 AM 33.4 °F 28.1 °F 32.2 °F 95% 29.79 in 10.0 mi NW 5.8 mph - N/A   Overcast
10:12 AM 33.8 °F 29.6 °F 32.5 °F 95% 29.79 in 7.0 mi WNW 4.6 mph - N/A   Overcast
10:33 AM 33.8 °F 27.7 °F 32.9 °F 96% 29.79 in 5.0 mi WNW 6.9 mph - N/A   Overcast
10:52 AM 33.8 °F 29.6 °F 32.9 °F 96% 29.78 in 5.0 mi WNW 4.6 mph - N/A   Overcast
11:13 AM 33.8 °F 25.8 °F 32.9 °F 96% 29.76 in 4.0 mi West 10.4 mph - N/A   Overcast
11:32 AM 33.3 °F 27.1 °F 32.9 °F 99% 29.75 in 1.8 mi WNW 6.9 mph - N/A   Overcast
11:53 AM 33.1 °F 26.1 °F 32.7 °F 99% 29.74 in 2.0 mi WNW 8.1 mph - N/A   Overcast
12:12 PM 32.9 °F 25.9 °F 32.5 °F 99% 29.73 in 1.2 mi West 8.1 mph - N/A   Overcast
12:33 PM 32.9 °F 27.5 °F 32.7 °F 99% 29.71 in 0.8 mi West 5.8 mph - N/A   Overcast
12:52 PM 32.9 °F 25.9 °F 32.9 °F 100% 29.70 in 1.0 mi WNW 8.1 mph - N/A   Overcast
1:13 PM 32.9 °F 26.7 °F 32.7 °F 99% 29.68 in 7.0 mi West 6.9 mph - N/A   Overcast
1:33 PM 33.6 °F 27.5 °F 32.9 °F 97% 29.67 in 10.0 mi WNW 6.9 mph - N/A   Overcast
1:52 PM 33.4 °F 25.4 °F 32.5 °F 96% 29.67 in 7.0 mi West 10.4 mph - N/A   Overcast
2:13 PM 33.4 °F 25.4 °F 32.2 °F 95% 29.67 in 7.0 mi West 10.4 mph - N/A   Overcast
2:32 PM 33.3 °F 25.7 °F 32.0 °F 95% 29.67 in 10.0 mi West 9.2 mph - N/A   Overcast
2:52 PM 33.3 °F 25.1 °F 32.0 °F 95% 29.66 in 7.0 mi West 10.4 mph - N/A   Overcast
3:12 PM 32.9 °F 25.3 °F 32.0 °F 96% 29.66 in 5.0 mi West 9.2 mph - N/A   Overcast
3:33 PM 32.5 °F 24.2 °F 32.0 °F 98% 29.66 in 7.0 mi West 10.4 mph - N/A   Overcast
3:52 PM 32.4 °F 24.6 °F 32.0 °F 99% 29.66 in 7.0 mi West 9.2 mph - N/A   Overcast
4:12 PM 32.4 °F 24.6 °F 31.8 °F 98% 29.65 in 10.0 mi West 9.2 mph - N/A   Overcast
4:33 PM 32.2 °F 25.0 °F 31.6 °F 98% 29.65 in 10.0 mi West 8.1 mph - N/A   Overcast
4:53 PM 32.2 °F 25.8 °F 31.5 °F 97% 29.65 in 10.0 mi West 6.9 mph - N/A   Overcast
5:13 PM 32.0 °F 24.8 °F 31.5 °F 98% 29.64 in 10.0 mi West 8.1 mph - N/A   Overcast
5:32 PM 32.2 °F 25.0 °F 31.5 °F 97% 29.64 in 10.0 mi West 8.1 mph - N/A   Overcast
5:53 PM 32.0 °F 24.8 °F 30.9 °F 96% 29.64 in 10.0 mi WSW 8.1 mph - N/A   Overcast
6:12 PM 32.0 °F 26.4 °F 29.7 °F 91% 29.63 in 10.0 mi SW 5.8 mph - N/A   Overcast
6:32 PM 32.0 °F 26.4 °F 29.8 °F 92% 29.62 in 10.0 mi SW 5.8 mph - N/A   Overcast
6:52 PM 31.8 °F 26.2 °F 29.7 °F 92% 29.63 in 10.0 mi SW 5.8 mph - N/A   Overcast
7:12 PM 31.6 °F 27.0 °F 29.8 °F 93% 29.62 in 7.0 mi SW 4.6 mph - N/A   Overcast
7:32 PM 31.6 °F 25.1 °F 29.8 °F 93% 29.60 in 10.0 mi SW 6.9 mph - N/A   Overcast
7:52 PM 31.6 °F 23.7 °F 29.7 °F 92% 29.61 in 10.0 mi SW 9.2 mph - N/A   Overcast
8:13 PM 31.8 °F 26.2 °F 30.0 °F 93% 29.61 in 10.0 mi SSW 5.8 mph - N/A   Overcast
8:32 PM 31.8 °F 25.4 °F 29.8 °F 92% 29.61 in 10.0 mi SW 6.9 mph - N/A   Overcast
8:53 PM 31.8 °F 25.4 °F 29.8 °F 92% 29.60 in 10.0 mi SSW 6.9 mph - N/A   Overcast
9:12 PM 32.0 °F 24.8 °F 30.0 °F 92% 29.60 in 10.0 mi SSW 8.1 mph - N/A   Overcast
9:33 PM 31.8 °F 23.3 °F 30.0 °F 93% 29.60 in 10.0 mi SW 10.4 mph - N/A   Overcast
9:52 PM 31.5 °F 22.3 °F 29.3 °F 92% 29.59 in 10.0 mi SSW 11.5 mph - N/A   Overcast
10:13 PM 31.5 °F 22.9 °F 29.5 °F 92% 29.59 in 10.0 mi SW 10.4 mph - N/A   Overcast
10:33 PM 31.1 °F 21.4 °F 29.5 °F 94% 29.60 in 10.0 mi SSW 12.7 mph 16.1 mph N/A   Overcast
10:53 PM 30.7 °F 22.6 °F 29.1 °F 94% 29.59 in 10.0 mi SSW 9.2 mph - N/A   Overcast
11:13 PM 30.6 °F 21.8 °F 29.3 °F 95% 29.59 in 10.0 mi SSW 10.4 mph - N/A   Overcast
11:32 PM 30.6 °F 23.1 °F 29.3 °F 95% 29.59 in 10.0 mi SSW 8.1 mph - N/A   Overcast
11:53 PM 30.4 °F 22.2 °F 28.9 °F 94% 29.59 in 10.0 mi SSW 9.2 mph - N/A   Overcast